TimePST,TemperatureF,Dew PointF,Humidity,Sea Level PressureIn,VisibilityMPH,Wind Direction,Wind SpeedMPH,Gust SpeedMPH,PrecipitationIn,Events,Conditions,WindDirDegrees,DateUTC
12:54 AM,45.0,37.0,74,29.87,10.0,North,8.1,-,N/A,,Clear,360,2011-11-11 08:54:00
1:54 AM,46.0,37.0,71,29.86,10.0,North,6.9,-,N/A,,Clear,360,2011-11-11 09:54:00
2:54 AM,43.0,37.0,80,29.84,10.0,Calm,Calm,-,N/A,,Clear,0,2011-11-11 10:54:00
3:54 AM,45.0,37.9,76,29.81,10.0,NNE,5.8,-,N/A,,Clear,20,2011-11-11 11:54:00
4:54 AM,46.0,39.0,76,29.79,10.0,NNW,3.5,-,N/A,,Scattered Clouds,330,2011-11-11 12:54:00
5:54 AM,50.0,37.9,63,29.77,10.0,Calm,Calm,-,N/A,,Partly Cloudy,0,2011-11-11 13:54:00
6:54 AM,48.0,37.9,68,29.77,10.0,SW,3.5,-,N/A,,Clear,220,2011-11-11 14:54:00
7:54 AM,51.1,37.0,59,29.77,10.0,ESE,3.5,-,N/A,,Clear,120,2011-11-11 15:54:00
8:54 AM,52.0,39.9,63,29.81,10.0,SE,6.9,-,N/A,,Mostly Cloudy,130,2011-11-11 16:54:00
9:54 AM,50.0,44.1,80,29.83,7.0,North,4.6,-,0.00,Rain,Light Rain,360,2011-11-11 17:54:00
10:54 AM,51.1,42.1,71,29.81,8.0,East,9.2,-,0.04,Rain,Light Rain,90,2011-11-11 18:54:00
11:54 AM,55.9,42.1,60,29.78,10.0,Calm,Calm,-,0.01,,Overcast,0,2011-11-11 19:54:00
12:54 PM,55.9,46.9,72,29.76,10.0,NNE,6.9,-,N/A,,Partly Cloudy,20,2011-11-11 20:54:00
1:54 PM,55.0,46.0,72,29.76,10.0,SSW,4.6,-,N/A,,Overcast,200,2011-11-11 21:54:00
2:54 PM,54.0,45.0,72,29.75,10.0,East,6.9,-,0.01,,Mostly Cloudy,80,2011-11-11 22:54:00
3:54 PM,54.0,44.1,69,29.75,10.0,East,5.8,-,N/A,,Overcast,80,2011-11-11 23:54:00
4:54 PM,52.0,48.0,86,29.76,10.0,North,3.5,-,0.03,,Overcast,350,2011-11-12 00:54:00
5:54 PM,52.0,46.9,83,29.75,10.0,South,3.5,-,N/A,,Overcast,170,2011-11-12 01:54:00
6:54 PM,53.1,46.9,80,29.75,10.0,East,6.9,-,0.01,Rain,Light Rain,100,2011-11-12 02:54:00
7:54 PM,50.0,46.9,89,29.77,9.0,North,6.9,-,0.00,,Mostly Cloudy,10,2011-11-12 03:54:00
8:54 PM,52.0,48.9,89,29.79,10.0,North,8.1,-,N/A,,Overcast,350,2011-11-12 04:54:00
9:54 PM,52.0,48.0,86,29.82,10.0,North,8.1,-,N/A,,Overcast,10,2011-11-12 05:54:00
10:54 PM,52.0,48.9,89,29.82,10.0,NNE,9.2,-,N/A,,Overcast,30,2011-11-12 06:54:00
11:54 PM,52.0,50.0,93,29.82,6.0,North,11.5,-,0.01,Rain,Light Rain,10,2011-11-12 07:54:00